Terug naar catalogus

STARLINK-30271

ActiefCommunicatieVLEO
NORAD 57669·PAYLOAD·🇺🇸 United States

Gelanceerd Aug 22, 2023 vanaf Vandenberg Space Force Base

Loading…

Volgende Passages (komende 24 uur)

TLE

VersSource: CelesTrak SupGP

Epoch: Sep 14, 2026, 22:43 UTC

1 57669C 23124G   26257.94701389  .00021984  00000+0  70709-3 0  2574
2 57669  53.1582  46.4385 0001204  82.0522  69.7595 15.31685075    18

Volg STARLINK-30271 in realtime met AllMySat

Download on the App Store